5600700991,2009,01,01,00,0.041
5600700991,2009,01,01,01,0.041
5600700991,2009,01,01,02,0.04
5600700991,2009,01,01,03,99
5600700991,2009,01,01,04,0.036
5600700991,2009,01,01,05,0.036
5600700991,2009,01,01,06,0.039
5600700991,2009,01,01,07,0.035
5600700991,2009,01,01,08,0.037
5600700991,2009,01,01,09,0.037
5600700991,2009,01,01,10,0.038
5600700991,2009,01,01,11,0.038
5600700991,2009,01,01,12,0.039
5600700991,2009,01,01,13,0.04
5600700991,2009,01,01,14,0.042
5600700991,2009,01,01,15,0.044
5600700991,2009,01,01,16,0.044
5600700991,2009,01,01,17,0.044
5600700991,2009,01,01,18,0.041
5600700991,2009,01,01,19,0.04
5600700991,2009,01,01,20,0.041
5600700991,2009,01,01,21,0.04
5600700991,2009,01,01,22,0.039
5600700991,2009,01,01,23,0.04
5600700991,2009,01,02,00,0.04
5600700991,2009,01,02,01,0.039
5600700991,2009,01,02,02,0.038
5600700991,2009,01,02,03,99
5600700991,2009,01,02,04,0.038
5600700991,2009,01,02,05,0.037
5600700991,2009,01,02,06,0.038
5600700991,2009,01,02,07,0.037
5600700991,2009,01,02,08,0.038
5600700991,2009,01,02,09,0.039
5600700991,2009,01,02,10,0.039
5600700991,2009,01,02,11,0.04
5600700991,2009,01,02,12,0.04
5600700991,2009,01,02,13,0.04
5600700991,2009,01,02,14,0.042
5600700991,2009,01,02,15,0.043
5600700991,2009,01,02,16,0.043
5600700991,2009,01,02,17,0.042
5600700991,2009,01,02,18,0.041
5600700991,2009,01,02,19,0.04
5600700991,2009,01,02,20,0.04
5600700991,2009,01,02,21,0.04
5600700991,2009,01,02,22,0.039
5600700991,2009,01,02,23,0.039
5600700991,2009,01,03,00,0.038
5600700991,2009,01,03,01,0.042
5600700991,2009,01,03,02,0.044
5600700991,2009,01,03,03,99
5600700991,2009,01,03,04,0.042
5600700991,2009,01,03,05,0.043
5600700991,2009,01,03,06,0.043
5600700991,2009,01,03,07,0.042
5600700991,2009,01,03,08,0.04
5600700991,2009,01,03,09,0.04
5600700991,2009,01,03,10,0.041
5600700991,2009,01,03,11,0.039
5600700991,2009,01,03,12,0.04
5600700991,2009,01,03,13,0.04
5600700991,2009,01,03,14,0.041
5600700991,2009,01,03,15,0.041
5600700991,2009,01,03,16,0.038
5600700991,2009,01,03,17,0.038
5600700991,2009,01,03,18,0.038
5600700991,2009,01,03,19,0.037
5600700991,2009,01,03,20,0.038
5600700991,2009,01,03,21,0.035
5600700991,2009,01,03,22,0.034
5600700991,2009,01,03,23,0.034
5600700991,2009,01,04,00,0.036
5600700991,2009,01,04,01,0.035
5600700991,2009,01,04,02,0.035
5600700991,2009,01,04,03,99
5600700991,2009,01,04,04,0.035
5600700991,2009,01,04,05,0.035
5600700991,2009,01,04,06,0.035
5600700991,2009,01,04,07,0.035
5600700991,2009,01,04,08,0.035
5600700991,2009,01,04,09,0.036
5600700991,2009,01,04,10,0.036
5600700991,2009,01,04,11,0.037
5600700991,2009,01,04,12,0.037
5600700991,2009,01,04,13,0.038
5600700991,2009,01,04,14,0.037
5600700991,2009,01,04,15,0.037
5600700991,2009,01,04,16,0.039
5600700991,2009,01,04,17,0.039
5600700991,2009,01,04,18,0.036
5600700991,2009,01,04,19,0.036
5600700991,2009,01,04,20,0.04
5600700991,2009,01,04,21,0.039
5600700991,2009,01,04,22,0.038
5600700991,2009,01,04,23,0.038
5600700991,2009,01,05,00,0.037
5600700991,2009,01,05,01,0.036
5600700991,2009,01,05,02,0.033
5600700991,2009,01,05,03,99
5600700991,2009,01,05,04,99
5600700991,2009,01,05,05,0.033
5600700991,2009,01,05,06,99
5600700991,2009,01,05,07,99
5600700991,2009,01,05,08,99
5600700991,2009,01,05,09,99
5600700991,2009,01,05,10,99
5600700991,2009,01,05,11,99
5600700991,2009,01,05,12,99
5600700991,2009,01,05,13,99
5600700991,2009,01,05,14,99
5600700991,2009,01,05,15,99
5600700991,2009,01,05,16,99
5600700991,2009,01,05,17,99
5600700991,2009,01,05,18,99
5600700991,2009,01,05,19,99
5600700991,2009,01,05,20,99
5600700991,2009,01,05,21,99
5600700991,2009,01,05,22,99
5600700991,2009,01,05,23,99
5600700991,2009,01,06,00,99
5600700991,2009,01,06,01,99
5600700991,2009,01,06,02,99
5600700991,2009,01,06,03,99
5600700991,2009,01,06,04,0.038
5600700991,2009,01,06,05,0.036
5600700991,2009,01,06,06,0.035
5600700991,2009,01,06,07,0.035
5600700991,2009,01,06,08,0.033
5600700991,2009,01,06,09,0.034
5600700991,2009,01,06,10,0.031
5600700991,2009,01,06,11,99
5600700991,2009,01,06,12,99
5600700991,2009,01,06,13,0.038
5600700991,2009,01,06,14,0.039
5600700991,2009,01,06,15,0.038
5600700991,2009,01,06,16,0.037
5600700991,2009,01,06,17,0.037
5600700991,2009,01,06,18,0.037
5600700991,2009,01,06,19,0.037
5600700991,2009,01,06,20,0.036
5600700991,2009,01,06,21,0.035
5600700991,2009,01,06,22,0.036
5600700991,2009,01,06,23,0.036
5600700991,2009,01,07,00,0.035
5600700991,2009,01,07,01,0.034
5600700991,2009,01,07,02,0.033
5600700991,2009,01,07,03,99
5600700991,2009,01,07,04,99
5600700991,2009,01,07,05,99
5600700991,2009,01,07,06,99
5600700991,2009,01,07,07,99
5600700991,2009,01,07,08,99
5600700991,2009,01,07,09,99
5600700991,2009,01,07,10,99
5600700991,2009,01,07,11,99
5600700991,2009,01,07,12,99
5600700991,2009,01,07,13,99
5600700991,2009,01,07,14,99
5600700991,2009,01,07,15,99
5600700991,2009,01,07,16,99
5600700991,2009,01,07,17,99
5600700991,2009,01,07,18,99
5600700991,2009,01,07,19,99
5600700991,2009,01,07,20,99
5600700991,2009,01,07,21,99
5600700991,2009,01,07,22,99
5600700991,2009,01,07,23,99
5600700991,2009,01,08,01,99
5600700991,2009,01,08,02,99
5600700991,2009,01,08,03,99
5600700991,2009,01,08,04,99
5600700991,2009,01,08,05,99
5600700991,2009,01,08,06,99
5600700991,2009,01,08,07,99
5600700991,2009,01,08,08,99
5600700991,2009,01,08,09,99
5600700991,2009,01,08,10,99
5600700991,2009,01,08,11,99
5600700991,2009,01,08,12,99
5600700991,2009,01,08,13,99
5600700991,2009,01,08,14,99
5600700991,2009,01,08,15,0.04
5600700991,2009,01,08,16,0.039
5600700991,2009,01,08,17,0.039
5600700991,2009,01,08,18,0.039
5600700991,2009,01,08,19,0.037
5600700991,2009,01,08,20,0.036
5600700991,2009,01,08,21,0.036
5600700991,2009,01,08,22,0.034
5600700991,2009,01,08,23,0.035
5600700991,2009,01,09,00,0.031
5600700991,2009,01,09,01,0.035
5600700991,2009,01,09,02,0.042
5600700991,2009,01,09,03,99
5600700991,2009,01,09,04,0.037
5600700991,2009,01,09,05,0.036
5600700991,2009,01,09,06,0.033
5600700991,2009,01,09,07,0.033
5600700991,2009,01,09,08,0.033
5600700991,2009,01,09,09,0.031
5600700991,2009,01,09,10,0.034
5600700991,2009,01,09,11,0.035
5600700991,2009,01,09,12,0.037
5600700991,2009,01,09,13,0.036
5600700991,2009,01,09,14,0.035
5600700991,2009,01,09,15,0.033
5600700991,2009,01,09,16,0.036
5600700991,2009,01,09,17,0.037
5600700991,2009,01,09,18,0.039
5600700991,2009,01,09,19,0.04
5600700991,2009,01,09,20,0.04
5600700991,2009,01,09,21,0.039
5600700991,2009,01,09,22,0.032
5600700991,2009,01,09,23,0.031
5600700991,2009,01,10,00,0.031
5600700991,2009,01,10,01,0.027
5600700991,2009,01,10,02,0.026
5600700991,2009,01,10,03,99
5600700991,2009,01,10,04,0.027
5600700991,2009,01,10,05,0.029
5600700991,2009,01,10,06,0.029
5600700991,2009,01,10,07,0.026
5600700991,2009,01,10,08,0.03
5600700991,2009,01,10,09,0.032
5600700991,2009,01,10,10,0.034
5600700991,2009,01,10,11,0.034
5600700991,2009,01,10,12,0.037
5600700991,2009,01,10,13,0.038
5600700991,2009,01,10,14,0.04
5600700991,2009,01,10,15,0.041
5600700991,2009,01,10,16,0.042
5600700991,2009,01,10,17,0.041
5600700991,2009,01,10,18,0.038
5600700991,2009,01,10,19,0.037
5600700991,2009,01,10,20,0.036
5600700991,2009,01,10,21,0.035
5600700991,2009,01,10,22,0.035
5600700991,2009,01,10,23,0.037
5600700991,2009,01,11,00,0.034
5600700991,2009,01,11,01,0.034
5600700991,2009,01,11,02,0.029
5600700991,2009,01,11,03,99
5600700991,2009,01,11,04,0.034
5600700991,2009,01,11,05,0.034
5600700991,2009,01,11,06,0.032
5600700991,2009,01,11,07,0.037
5600700991,2009,01,11,08,0.037
5600700991,2009,01,11,09,0.037
5600700991,2009,01,11,10,0.038
5600700991,2009,01,11,11,0.039
5600700991,2009,01,11,12,0.039
5600700991,2009,01,11,13,0.04
5600700991,2009,01,11,14,0.039
5600700991,2009,01,11,15,0.038
5600700991,2009,01,11,16,0.037
5600700991,2009,01,11,17,0.037
5600700991,2009,01,11,18,0.036
5600700991,2009,01,11,19,0.034
5600700991,2009,01,11,20,0.034
5600700991,2009,01,11,21,0.034
5600700991,2009,01,11,22,0.035
5600700991,2009,01,11,23,0.035
5600700991,2009,01,12,00,0.036
5600700991,2009,01,12,01,0.037
5600700991,2009,01,12,02,0.036
5600700991,2009,01,12,03,99
5600700991,2009,01,12,04,99
5600700991,2009,01,12,05,0.035
5600700991,2009,01,12,06,0.034
5600700991,2009,01,12,07,0.036
5600700991,2009,01,12,08,0.037
5600700991,2009,01,12,09,0.037
5600700991,2009,01,12,10,0.036
5600700991,2009,01,12,11,0.038
5600700991,2009,01,12,12,0.039
5600700991,2009,01,12,13,0.041
5600700991,2009,01,12,14,0.043
5600700991,2009,01,12,15,0.043
5600700991,2009,01,12,16,0.043
5600700991,2009,01,12,17,0.043
5600700991,2009,01,12,18,0.042
5600700991,2009,01,12,19,0.041
5600700991,2009,01,12,20,0.042
5600700991,2009,01,12,21,0.041
5600700991,2009,01,12,22,0.037
5600700991,2009,01,12,23,0.033
5600700991,2009,01,13,00,0.031
5600700991,2009,01,13,01,0.034
5600700991,2009,01,13,02,0.035
5600700991,2009,01,13,03,99
5600700991,2009,01,13,04,0.034
5600700991,2009,01,13,05,0.036
5600700991,2009,01,13,06,0.036
5600700991,2009,01,13,07,0.035
5600700991,2009,01,13,08,0.036
5600700991,2009,01,13,09,0.036
5600700991,2009,01,13,10,0.036
5600700991,2009,01,13,11,0.038
5600700991,2009,01,13,12,0.038
5600700991,2009,01,13,13,0.038
5600700991,2009,01,13,14,0.038
5600700991,2009,01,13,15,0.038
5600700991,2009,01,13,16,0.037
5600700991,2009,01,13,17,0.036
5600700991,2009,01,13,18,0.035
5600700991,2009,01,13,19,0.034
5600700991,2009,01,13,20,0.035
5600700991,2009,01,13,21,0.034
5600700991,2009,01,13,22,0.034
5600700991,2009,01,13,23,0.034
5600700991,2009,01,14,00,0.034
5600700991,2009,01,14,01,0.033
5600700991,2009,01,14,02,0.032
5600700991,2009,01,14,03,99
5600700991,2009,01,14,04,0.033
5600700991,2009,01,14,05,0.033
5600700991,2009,01,14,06,0.033
5600700991,2009,01,14,07,0.032
5600700991,2009,01,14,08,0.033
5600700991,2009,01,14,09,0.034
5600700991,2009,01,14,10,99
5600700991,2009,01,14,11,99
5600700991,2009,01,14,12,99
5600700991,2009,01,14,13,99
5600700991,2009,01,14,14,99
5600700991,2009,01,14,15,99
5600700991,2009,01,14,16,99
5600700991,2009,01,14,17,99
5600700991,2009,01,14,18,99
5600700991,2009,01,14,19,99
5600700991,2009,01,14,20,99
5600700991,2009,01,14,21,99
5600700991,2009,01,14,22,99
5600700991,2009,01,14,23,99
5600700991,2009,01,15,00,99
5600700991,2009,01,15,01,99
5600700991,2009,01,15,02,99
5600700991,2009,01,15,03,99
5600700991,2009,01,15,04,0.029
5600700991,2009,01,15,05,0.027
5600700991,2009,01,15,06,0.028
5600700991,2009,01,15,07,0.032
5600700991,2009,01,15,08,0.031
5600700991,2009,01,15,09,0.035
5600700991,2009,01,15,10,0.036
5600700991,2009,01,15,11,99
5600700991,2009,01,15,12,99
5600700991,2009,01,15,13,99
5600700991,2009,01,15,14,99
5600700991,2009,01,15,15,99
5600700991,2009,01,15,16,99
5600700991,2009,01,15,17,99
5600700991,2009,01,15,18,99
5600700991,2009,01,15,19,99
5600700991,2009,01,15,20,99
5600700991,2009,01,15,21,99
5600700991,2009,01,15,22,99
5600700991,2009,01,15,23,99
5600700991,2009,01,16,00,99
5600700991,2009,01,16,01,99
5600700991,2009,01,16,02,99
5600700991,2009,01,16,03,99
5600700991,2009,01,16,04,0.034
5600700991,2009,01,16,05,0.032
5600700991,2009,01,16,06,0.033
5600700991,2009,01,16,07,0.034
5600700991,2009,01,16,08,0.035
5600700991,2009,01,16,09,0.036
5600700991,2009,01,16,10,0.037
5600700991,2009,01,16,11,0.035
5600700991,2009,01,16,12,0.036
5600700991,2009,01,16,13,0.038
5600700991,2009,01,16,14,0.038
5600700991,2009,01,16,15,0.041
5600700991,2009,01,16,16,0.041
5600700991,2009,01,16,17,0.039
5600700991,2009,01,16,18,0.039
5600700991,2009,01,16,19,0.039
5600700991,2009,01,16,20,0.039
5600700991,2009,01,16,21,0.04
5600700991,2009,01,16,22,0.04
5600700991,2009,01,16,23,0.04
5600700991,2009,01,17,00,0.04
5600700991,2009,01,17,01,0.04
5600700991,2009,01,17,02,0.04
5600700991,2009,01,17,03,99
5600700991,2009,01,17,04,0.04
5600700991,2009,01,17,05,0.039
5600700991,2009,01,17,06,0.039
5600700991,2009,01,17,07,0.039
5600700991,2009,01,17,08,0.039
5600700991,2009,01,17,09,0.04
5600700991,2009,01,17,10,0.042
5600700991,2009,01,17,11,0.041
5600700991,2009,01,17,12,0.042
5600700991,2009,01,17,13,0.043
5600700991,2009,01,17,14,0.041
5600700991,2009,01,17,15,0.042
5600700991,2009,01,17,16,0.041
5600700991,2009,01,17,17,0.039
5600700991,2009,01,17,18,0.043
5600700991,2009,01,17,19,0.043
5600700991,2009,01,17,20,0.04
5600700991,2009,01,17,21,0.04
5600700991,2009,01,17,22,0.041
5600700991,2009,01,17,23,0.041
5600700991,2009,01,18,00,0.041
5600700991,2009,01,18,01,0.042
5600700991,2009,01,18,02,0.042
5600700991,2009,01,18,03,99
5600700991,2009,01,18,04,0.041
5600700991,2009,01,18,05,0.038
5600700991,2009,01,18,06,0.039
5600700991,2009,01,18,07,0.039
5600700991,2009,01,18,08,0.039
5600700991,2009,01,18,09,0.039
5600700991,2009,01,18,10,0.04
5600700991,2009,01,18,11,0.04
5600700991,2009,01,18,12,0.041
5600700991,2009,01,18,13,0.041
5600700991,2009,01,18,14,0.042
5600700991,2009,01,18,15,0.04
5600700991,2009,01,18,16,0.037
5600700991,2009,01,18,17,0.039
5600700991,2009,01,18,18,0.039
5600700991,2009,01,18,19,0.039
5600700991,2009,01,18,20,0.042
5600700991,2009,01,18,21,0.044
5600700991,2009,01,18,22,0.043
5600700991,2009,01,18,23,0.043
5600700991,2009,01,19,00,0.043
5600700991,2009,01,19,01,0.045
5600700991,2009,01,19,02,0.045
5600700991,2009,01,19,03,99
5600700991,2009,01,19,04,99
5600700991,2009,01,19,05,0.042
5600700991,2009,01,19,06,0.042
5600700991,2009,01,19,07,0.041
5600700991,2009,01,19,08,0.041
5600700991,2009,01,19,09,0.04
5600700991,2009,01,19,10,99
5600700991,2009,01,19,11,99
5600700991,2009,01,19,12,0.043
5600700991,2009,01,19,13,0.042
5600700991,2009,01,19,14,0.04
5600700991,2009,01,19,15,0.039
5600700991,2009,01,19,16,0.037
5600700991,2009,01,19,17,0.038
5600700991,2009,01,19,18,0.037
5600700991,2009,01,19,19,0.036
5600700991,2009,01,19,20,0.034
5600700991,2009,01,19,21,0.033
5600700991,2009,01,19,22,0.038
5600700991,2009,01,19,23,0.04
5600700991,2009,01,20,00,0.041
5600700991,2009,01,20,01,0.04
5600700991,2009,01,20,02,0.041
5600700991,2009,01,20,03,99
5600700991,2009,01,20,04,0.042
5600700991,2009,01,20,05,0.041
5600700991,2009,01,20,06,0.042
5600700991,2009,01,20,07,0.042
5600700991,2009,01,20,08,0.042
5600700991,2009,01,20,09,99
5600700991,2009,01,20,10,99
5600700991,2009,01,20,11,99
5600700991,2009,01,20,12,99
5600700991,2009,01,20,13,99
5600700991,2009,01,20,14,99
5600700991,2009,01,20,15,99
5600700991,2009,01,20,16,99
5600700991,2009,01,20,17,99
5600700991,2009,01,20,18,99
5600700991,2009,01,20,19,99
5600700991,2009,01,20,20,99
5600700991,2009,01,20,21,99
5600700991,2009,01,20,22,99
5600700991,2009,01,20,23,99
5600700991,2009,01,21,00,99
5600700991,2009,01,21,01,99
5600700991,2009,01,21,02,99
5600700991,2009,01,21,03,99
5600700991,2009,01,21,04,0.035
5600700991,2009,01,21,05,0.035
5600700991,2009,01,21,06,0.035
5600700991,2009,01,21,07,0.036
5600700991,2009,01,21,08,0.037
5600700991,2009,01,21,09,0.038
5600700991,2009,01,21,10,0.038
5600700991,2009,01,21,11,0.038
5600700991,2009,01,21,12,0.039
5600700991,2009,01,21,13,0.04
5600700991,2009,01,21,14,0.044
5600700991,2009,01,21,15,0.046
5600700991,2009,01,21,16,0.047
5600700991,2009,01,21,17,0.046
5600700991,2009,01,21,18,0.046
5600700991,2009,01,21,19,0.047
5600700991,2009,01,21,20,0.047
5600700991,2009,01,21,21,0.047
5600700991,2009,01,21,22,0.046
5600700991,2009,01,21,23,0.045
5600700991,2009,01,22,00,0.044
5600700991,2009,01,22,01,0.043
5600700991,2009,01,22,02,0.039
5600700991,2009,01,22,03,99
5600700991,2009,01,22,04,0.034
5600700991,2009,01,22,05,0.036
5600700991,2009,01,22,06,0.036
5600700991,2009,01,22,07,0.039
5600700991,2009,01,22,08,0.04
5600700991,2009,01,22,09,0.04
5600700991,2009,01,22,10,0.042
5600700991,2009,01,22,11,0.044
5600700991,2009,01,22,12,0.046
5600700991,2009,01,22,13,0.045
5600700991,2009,01,22,14,0.046
5600700991,2009,01,22,15,0.047
5600700991,2009,01,22,16,0.049
5600700991,2009,01,22,17,0.049
5600700991,2009,01,22,18,0.048
5600700991,2009,01,22,19,0.047
5600700991,2009,01,22,20,0.044
5600700991,2009,01,22,21,0.04
5600700991,2009,01,22,22,0.038
5600700991,2009,01,22,23,0.038
5600700991,2009,01,23,00,0.039
5600700991,2009,01,23,01,0.039
5600700991,2009,01,23,02,0.04
5600700991,2009,01,23,03,99
5600700991,2009,01,23,04,0.037
5600700991,2009,01,23,05,0.035
5600700991,2009,01,23,06,0.035
5600700991,2009,01,23,07,0.035
5600700991,2009,01,23,08,0.034
5600700991,2009,01,23,09,0.032
5600700991,2009,01,23,10,0.03
5600700991,2009,01,23,11,0.026
5600700991,2009,01,23,12,0.023
5600700991,2009,01,23,13,0.023
5600700991,2009,01,23,14,0.023
5600700991,2009,01,23,15,0.025
5600700991,2009,01,23,16,0.02
5600700991,2009,01,23,17,0.021
5600700991,2009,01,23,18,0.02
5600700991,2009,01,23,19,0.021
5600700991,2009,01,23,20,0.019
5600700991,2009,01,23,21,0.019
5600700991,2009,01,23,22,0.017
5600700991,2009,01,23,23,0.02
5600700991,2009,01,24,00,0.022
5600700991,2009,01,24,01,0.022
5600700991,2009,01,24,02,0.025
5600700991,2009,01,24,03,99
5600700991,2009,01,24,04,0.023
5600700991,2009,01,24,05,0.025
5600700991,2009,01,24,06,0.028
5600700991,2009,01,24,07,0.028
5600700991,2009,01,24,08,0.029
5600700991,2009,01,24,09,0.029
5600700991,2009,01,24,10,0.03
5600700991,2009,01,24,11,0.028
5600700991,2009,01,24,12,0.029
5600700991,2009,01,24,13,0.03
5600700991,2009,01,24,14,0.03
5600700991,2009,01,24,15,0.028
5600700991,2009,01,24,16,0.027
5600700991,2009,01,24,17,0.025
5600700991,2009,01,24,18,0.028
5600700991,2009,01,24,19,0.03
5600700991,2009,01,24,20,0.026
5600700991,2009,01,24,21,0.025
5600700991,2009,01,24,22,0.024
5600700991,2009,01,24,23,0.025
5600700991,2009,01,25,00,0.026
5600700991,2009,01,25,01,0.023
5600700991,2009,01,25,02,0.021
5600700991,2009,01,25,03,99
5600700991,2009,01,25,04,0.022
5600700991,2009,01,25,05,0.023
5600700991,2009,01,25,06,0.024
5600700991,2009,01,25,07,0.025
5600700991,2009,01,25,08,0.025
5600700991,2009,01,25,09,0.026
5600700991,2009,01,25,10,0.03
5600700991,2009,01,25,11,0.031
5600700991,2009,01,25,12,0.033
5600700991,2009,01,25,13,0.03
5600700991,2009,01,25,14,0.031
5600700991,2009,01,25,15,0.032
5600700991,2009,01,25,16,0.03
5600700991,2009,01,25,17,0.023
5600700991,2009,01,25,18,0.023
5600700991,2009,01,25,19,0.024
5600700991,2009,01,25,20,0.02
5600700991,2009,01,25,21,0.022
5600700991,2009,01,25,22,0.022
5600700991,2009,01,25,23,0.021
5600700991,2009,01,26,00,0.023
5600700991,2009,01,26,01,0.027
5600700991,2009,01,26,02,0.027
5600700991,2009,01,26,03,99
5600700991,2009,01,26,04,99
5600700991,2009,01,26,05,0.027
5600700991,2009,01,26,06,0.027
5600700991,2009,01,26,07,0.027
5600700991,2009,01,26,08,0.026
5600700991,2009,01,26,09,0.025
5600700991,2009,01,26,10,0.025
5600700991,2009,01,26,11,0.025
5600700991,2009,01,26,12,0.025
5600700991,2009,01,26,13,0.027
5600700991,2009,01,26,14,0.031
5600700991,2009,01,26,15,0.035
5600700991,2009,01,26,16,0.034
5600700991,2009,01,26,17,0.033
5600700991,2009,01,26,18,0.029
5600700991,2009,01,26,19,0.029
5600700991,2009,01,26,20,0.03
5600700991,2009,01,26,21,0.03
5600700991,2009,01,26,22,0.03
5600700991,2009,01,26,23,0.033
5600700991,2009,01,27,00,0.034
5600700991,2009,01,27,01,0.033
5600700991,2009,01,27,02,0.032
5600700991,2009,01,27,03,99
5600700991,2009,01,27,04,0.03
5600700991,2009,01,27,05,0.031
5600700991,2009,01,27,06,0.031
5600700991,2009,01,27,07,0.03
5600700991,2009,01,27,08,0.029
5600700991,2009,01,27,09,0.031
5600700991,2009,01,27,10,0.032
5600700991,2009,01,27,11,0.034
5600700991,2009,01,27,12,0.037
5600700991,2009,01,27,13,0.041
5600700991,2009,01,27,14,0.042
5600700991,2009,01,27,15,0.043
5600700991,2009,01,27,16,0.044
5600700991,2009,01,27,17,0.042
5600700991,2009,01,27,18,0.041
5600700991,2009,01,27,19,0.042
5600700991,2009,01,27,20,0.04
5600700991,2009,01,27,21,0.039
5600700991,2009,01,27,22,0.038
5600700991,2009,01,27,23,0.038
5600700991,2009,01,28,00,0.038
5600700991,2009,01,28,01,0.039
5600700991,2009,01,28,02,0.038
5600700991,2009,01,28,03,99
5600700991,2009,01,28,04,0.038
5600700991,2009,01,28,05,0.039
5600700991,2009,01,28,06,0.039
5600700991,2009,01,28,07,0.039
5600700991,2009,01,28,08,0.039
5600700991,2009,01,28,09,0.04
5600700991,2009,01,28,10,0.04
5600700991,2009,01,28,11,0.041
5600700991,2009,01,28,12,0.041
5600700991,2009,01,28,13,99
5600700991,2009,01,28,14,99
5600700991,2009,01,28,15,99
5600700991,2009,01,28,16,99
5600700991,2009,01,28,17,99
5600700991,2009,01,28,18,99
5600700991,2009,01,28,19,99
5600700991,2009,01,28,20,99
5600700991,2009,01,28,21,99
5600700991,2009,01,28,22,99
5600700991,2009,01,28,23,99
5600700991,2009,01,29,00,99
5600700991,2009,01,29,01,99
5600700991,2009,01,29,02,99
5600700991,2009,01,29,03,99
5600700991,2009,01,29,04,99
5600700991,2009,01,29,05,99
5600700991,2009,01,29,06,99
5600700991,2009,01,29,07,99
5600700991,2009,01,29,08,99
5600700991,2009,01,29,09,99
5600700991,2009,01,29,10,99
5600700991,2009,01,29,11,99
5600700991,2009,01,29,12,99
5600700991,2009,01,29,13,99
5600700991,2009,01,29,14,99
5600700991,2009,01,29,15,99
5600700991,2009,01,29,16,99
5600700991,2009,01,29,17,99
5600700991,2009,01,29,18,99
5600700991,2009,01,29,19,99
5600700991,2009,01,29,20,99
5600700991,2009,01,29,21,99
5600700991,2009,01,29,22,99
5600700991,2009,01,29,23,99
5600700991,2009,01,30,00,99
5600700991,2009,01,30,01,99
5600700991,2009,01,30,02,99
5600700991,2009,01,30,03,99
5600700991,2009,01,30,04,99
5600700991,2009,01,30,05,99
5600700991,2009,01,30,06,99
5600700991,2009,01,30,07,99
5600700991,2009,01,30,08,99
5600700991,2009,01,30,09,99
5600700991,2009,01,30,10,99
5600700991,2009,01,30,11,99
5600700991,2009,01,30,12,99
5600700991,2009,01,30,13,99
5600700991,2009,01,30,14,99
5600700991,2009,01,30,15,99
5600700991,2009,01,30,16,99
5600700991,2009,01,30,17,99
5600700991,2009,01,30,18,99
5600700991,2009,01,30,19,99
5600700991,2009,01,30,20,99
5600700991,2009,01,30,21,99
5600700991,2009,01,30,22,99
5600700991,2009,01,30,23,99
5600700991,2009,01,31,00,99
5600700991,2009,01,31,01,99
5600700991,2009,01,31,02,99
5600700991,2009,01,31,03,99
5600700991,2009,01,31,04,0.044
5600700991,2009,01,31,05,0.043
5600700991,2009,01,31,06,0.043
5600700991,2009,01,31,07,0.042
5600700991,2009,01,31,08,0.041
5600700991,2009,01,31,09,0.041
5600700991,2009,01,31,10,0.043
5600700991,2009,01,31,11,0.042
5600700991,2009,01,31,12,0.044
5600700991,2009,01,31,13,0.048
5600700991,2009,01,31,14,0.049
5600700991,2009,01,31,15,0.05
5600700991,2009,01,31,16,0.052
5600700991,2009,01,31,17,0.051
5600700991,2009,01,31,18,0.051
5600700991,2009,01,31,19,0.05
5600700991,2009,01,31,20,0.048
5600700991,2009,01,31,21,0.042
5600700991,2009,01,31,22,0.042
5600700991,2009,01,31,23,0.04
5600700991,2009,02,01,00,0.039
5600700991,2009,02,01,01,0.039
5600700991,2009,02,01,02,0.038
5600700991,2009,02,01,03,99
5600700991,2009,02,01,04,0.037
5600700991,2009,02,01,05,0.036
5600700991,2009,02,01,06,0.036
5600700991,2009,02,01,07,0.036
5600700991,2009,02,01,08,0.038
5600700991,2009,02,01,09,0.039
5600700991,2009,02,01,10,0.04
5600700991,2009,02,01,11,0.041
5600700991,2009,02,01,12,0.043
5600700991,2009,02,01,13,0.044
5600700991,2009,02,01,14,0.046
5600700991,2009,02,01,15,0.048
5600700991,2009,02,01,16,0.046
5600700991,2009,02,01,17,0.046
5600700991,2009,02,01,18,0.044
5600700991,2009,02,01,19,0.042
5600700991,2009,02,01,20,0.043
5600700991,2009,02,01,21,0.042
5600700991,2009,02,01,22,0.042
5600700991,2009,02,01,23,0.041
5600700991,2009,02,02,00,0.042
5600700991,2009,02,02,01,0.042
5600700991,2009,02,02,02,0.042
5600700991,2009,02,02,03,99